Time,TemperatureF,DewpointF,PressureIn,WindDirection,WindDirectionDegrees,WindSpeedMPH,WindSpeedGustMPH,Humidity,HourlyPrecipIn,Conditions,Clouds,dailyrainin,SoftwareType,DateUTC
2013-11-27 00:02:00,33.1,19.1,30.15,NW,315,3.6,6.3,56,0.00,,,0.00,WUHU216HW,2013-11-27 07:02:00,
2013-11-27 00:07:00,33.1,19.1,30.15,NNW,338,4.0,6.3,56,0.00,,,0.00,WUHU216HW,2013-11-27 07:07:00,
2013-11-27 00:12:00,33.1,19.1,30.15,NW,315,2.9,4.0,56,0.00,,,0.00,WUHU216HW,2013-11-27 07:12:00,
2013-11-27 00:17:00,33.1,19.1,30.15,NW,315,2.9,4.3,56,0.00,,,0.00,WUHU216HW,2013-11-27 07:17:00,
2013-11-27 00:22:00,32.9,18.9,30.15,NNW,338,3.4,6.0,56,0.00,,,0.00,WUHU216HW,2013-11-27 07:22:00,
2013-11-27 00:27:00,32.9,18.9,30.14,NW,315,2.5,6.0,56,0.00,,,0.00,WUHU216HW,2013-11-27 07:27:00,
2013-11-27 00:32:00,32.9,18.9,30.14,NW,315,3.8,4.9,56,0.00,,,0.00,WUHU216HW,2013-11-27 07:32:00,
2013-11-27 00:37:00,32.8,18.7,30.14,NW,315,4.9,4.9,56,0.00,,,0.00,WUHU216HW,2013-11-27 07:37:00,
2013-11-27 00:42:00,32.8,18.7,30.14,NW,315,3.8,5.1,56,0.00,,,0.00,WUHU216HW,2013-11-27 07:42:00,
2013-11-27 00:47:00,32.8,18.7,30.14,WNW,293,2.7,5.1,56,0.00,,,0.00,WUHU216HW,2013-11-27 07:47:00,
2013-11-27 00:52:00,32.8,18.7,30.14,NW,315,4.7,5.8,56,0.00,,,0.00,WUHU216HW,2013-11-27 07:52:00,
2013-11-27 00:57:00,32.8,18.7,30.14,NW,315,4.9,5.8,56,0.00,,,0.00,WUHU216HW,2013-11-27 07:57:00,
2013-11-27 01:02:00,32.8,18.7,30.13,NW,315,4.7,5.4,56,0.00,,,0.00,WUHU216HW,2013-11-27 08:02:00,
2013-11-27 01:07:00,32.8,18.3,30.13,NW,315,4.7,5.4,55,0.00,,,0.00,WUHU216HW,2013-11-27 08:07:00,
2013-11-27 01:12:00,32.9,18.5,30.13,West,270,3.1,4.7,55,0.00,,,0.00,WUHU216HW,2013-11-27 08:12:00,
2013-11-27 01:17:00,32.9,18.5,30.13,NW,315,3.4,5.8,55,0.00,,,0.00,WUHU216HW,2013-11-27 08:17:00,
2013-11-27 01:22:00,32.9,18.5,30.13,WNW,293,4.5,5.8,55,0.00,,,0.00,WUHU216HW,2013-11-27 08:22:00,
2013-11-27 01:27:00,32.9,18.5,30.13,NW,315,3.8,4.7,55,0.00,,,0.00,WUHU216HW,2013-11-27 08:27:00,
2013-11-27 01:32:00,32.9,18.5,30.13,NW,315,4.0,4.7,55,0.00,,,0.00,WUHU216HW,2013-11-27 08:32:00,
2013-11-27 01:37:00,32.9,18.0,30.13,WNW,293,4.0,4.0,54,0.00,,,0.00,WUHU216HW,2013-11-27 08:37:00,
2013-11-27 01:42:00,32.9,18.0,30.13,NW,315,3.6,4.0,54,0.00,,,0.00,WUHU216HW,2013-11-27 08:42:00,
2013-11-27 01:47:00,32.8,17.8,30.12,NW,315,3.6,4.9,54,0.00,,,0.00,WUHU216HW,2013-11-27 08:47:00,
2013-11-27 01:52:00,32.8,17.8,30.12,NW,315,2.7,4.9,54,0.00,,,0.00,WUHU216HW,2013-11-27 08:52:00,
2013-11-27 01:57:00,32.6,17.7,30.12,NW,315,4.3,4.9,54,0.00,,,0.00,WUHU216HW,2013-11-27 08:57:00,
2013-11-27 02:03:00,32.8,17.8,30.12,NW,315,4.9,4.9,54,0.00,,,0.00,WUHU216HW,2013-11-27 09:03:00,
2013-11-27 02:08:00,32.8,17.8,30.12,West,270,4.5,4.9,54,0.00,,,0.00,WUHU216HW,2013-11-27 09:08:00,
2013-11-27 02:13:00,32.9,18.0,30.12,West,270,3.1,6.0,54,0.00,,,0.00,WUHU216HW,2013-11-27 09:13:00,
2013-11-27 02:18:00,33.1,17.7,30.12,NW,315,2.5,6.0,53,0.00,,,0.00,WUHU216HW,2013-11-27 09:18:00,
2013-11-27 02:23:00,32.9,17.6,30.12,WNW,293,3.6,4.5,53,0.00,,,0.00,WUHU216HW,2013-11-27 09:23:00,
2013-11-27 02:28:00,32.8,17.5,30.12,NW,315,4.5,4.9,53,0.00,,,0.00,WUHU216HW,2013-11-27 09:28:00,
2013-11-27 02:33:00,32.8,17.5,30.12,WNW,293,4.5,5.1,53,0.00,,,0.00,WUHU216HW,2013-11-27 09:33:00,
2013-11-27 02:38:00,32.8,17.5,30.12,NW,315,4.7,5.1,53,0.00,,,0.00,WUHU216HW,2013-11-27 09:38:00,
2013-11-27 02:43:00,32.9,17.6,30.12,NW,315,4.7,4.7,53,0.00,,,0.00,WUHU216HW,2013-11-27 09:43:00,
2013-11-27 02:48:00,33.1,17.3,30.12,WNW,293,4.5,4.9,52,0.00,,,0.00,WUHU216HW,2013-11-27 09:48:00,
2013-11-27 02:53:00,33.1,17.3,30.12,NW,315,5.4,5.4,52,0.00,,,0.00,WUHU216HW,2013-11-27 09:53:00,
2013-11-27 02:58:00,33.5,17.6,30.12,NW,315,6.3,6.3,52,0.00,,,0.00,WUHU216HW,2013-11-27 09:58:00,
2013-11-27 03:03:00,33.5,17.2,30.12,NNW,338,3.1,6.3,51,0.00,,,0.00,WUHU216HW,2013-11-27 10:03:00,
2013-11-27 03:08:00,33.5,17.2,30.11,NW,315,5.4,6.3,51,0.00,,,0.00,WUHU216HW,2013-11-27 10:08:00,
2013-11-27 03:13:00,33.5,17.2,30.11,NW,315,3.6,6.3,51,0.00,,,0.00,WUHU216HW,2013-11-27 10:13:00,
2013-11-27 03:18:00,33.5,17.2,30.11,NW,315,4.7,5.4,51,0.00,,,0.00,WUHU216HW,2013-11-27 10:18:00,
2013-11-27 03:23:00,33.7,16.9,30.11,NW,315,4.0,5.8,50,0.00,,,0.00,WUHU216HW,2013-11-27 10:23:00,
2013-11-27 03:28:00,34.0,16.7,30.11,NW,315,5.1,5.8,49,0.00,,,0.00,WUHU216HW,2013-11-27 10:28:00,
2013-11-27 03:33:00,34.2,16.9,30.11,NW,315,5.1,7.2,49,0.00,,,0.00,WUHU216HW,2013-11-27 10:33:00,
2013-11-27 03:38:00,34.0,16.7,30.11,WSW,248,4.0,7.2,49,0.00,,,0.00,WUHU216HW,2013-11-27 10:38:00,
2013-11-27 03:43:00,34.0,16.7,30.10,NW,315,6.7,6.7,49,0.00,,,0.00,WUHU216HW,2013-11-27 10:43:00,
2013-11-27 03:48:00,34.2,16.9,30.11,WNW,293,4.9,6.7,49,0.00,,,0.00,WUHU216HW,2013-11-27 10:48:00,
2013-11-27 03:53:00,34.2,16.5,30.11,NW,315,3.8,5.6,48,0.00,,,0.00,WUHU216HW,2013-11-27 10:53:00,
2013-11-27 03:58:00,34.2,16.5,30.10,NW,315,4.0,5.6,48,0.00,,,0.00,WUHU216HW,2013-11-27 10:58:00,
2013-11-27 04:03:00,34.2,16.5,30.10,NW,315,5.8,6.3,48,0.00,,,0.00,WUHU216HW,2013-11-27 11:03:00,
2013-11-27 04:08:00,34.2,16.5,30.10,NNW,338,4.7,6.3,48,0.00,,,0.00,WUHU216HW,2013-11-27 11:08:00,
2013-11-27 04:13:00,34.4,16.1,30.10,NNW,338,6.7,6.7,47,0.00,,,0.00,WUHU216HW,2013-11-27 11:13:00,
2013-11-27 04:18:00,34.6,16.3,30.10,WNW,293,4.7,6.9,47,0.00,,,0.00,WUHU216HW,2013-11-27 11:18:00,
2013-11-27 04:23:00,34.7,15.9,30.10,NW,315,5.8,8.3,46,0.00,,,0.00,WUHU216HW,2013-11-27 11:23:00,
2013-11-27 04:28:00,34.9,16.1,30.10,NW,315,5.1,8.3,46,0.00,,,0.00,WUHU216HW,2013-11-27 11:28:00,
2013-11-27 04:33:00,34.9,16.1,30.10,NNW,338,5.4,6.9,46,0.00,,,0.00,WUHU216HW,2013-11-27 11:33:00,
2013-11-27 04:38:00,34.9,16.1,30.10,WNW,293,4.7,6.9,46,0.00,,,0.00,WUHU216HW,2013-11-27 11:38:00,
2013-11-27 04:43:00,34.9,16.1,30.10,NW,315,5.8,6.7,46,0.00,,,0.00,WUHU216HW,2013-11-27 11:43:00,
2013-11-27 04:49:00,34.7,15.9,30.10,NNW,338,4.9,6.7,46,0.00,,,0.00,WUHU216HW,2013-11-27 11:49:00,
2013-11-27 04:54:00,34.9,16.1,30.10,NNW,338,3.8,6.7,46,0.00,,,0.00,WUHU216HW,2013-11-27 11:54:00,
2013-11-27 04:59:00,34.9,15.6,30.10,NNW,338,6.9,6.9,45,0.00,,,0.00,WUHU216HW,2013-11-27 11:59:00,
2013-11-27 05:04:00,35.1,15.3,30.10,NNW,338,6.9,6.9,44,0.00,,,0.00,WUHU216HW,2013-11-27 12:04:00,
2013-11-27 05:09:00,35.3,15.4,30.10,NNW,338,6.0,7.2,44,0.00,,,0.00,WUHU216HW,2013-11-27 12:09:00,
2013-11-27 05:14:00,35.3,15.9,30.10,NW,315,5.1,8.5,45,0.00,,,0.00,WUHU216HW,2013-11-27 12:14:00,
2013-11-27 05:19:00,35.1,15.8,30.10,WNW,293,4.3,8.5,45,0.00,,,0.00,WUHU216HW,2013-11-27 12:19:00,
2013-11-27 05:24:00,34.9,15.6,30.10,NW,315,6.7,6.9,45,0.00,,,0.00,WUHU216HW,2013-11-27 12:24:00,
2013-11-27 05:29:00,34.9,15.6,30.10,NW,315,4.7,7.2,45,0.00,,,0.00,WUHU216HW,2013-11-27 12:29:00,
2013-11-27 05:34:00,34.9,15.1,30.10,NW,315,5.1,7.8,44,0.00,,,0.00,WUHU216HW,2013-11-27 12:34:00,
2013-11-27 05:39:00,35.1,15.3,30.10,NW,315,4.3,7.8,44,0.00,,,0.00,WUHU216HW,2013-11-27 12:39:00,
2013-11-27 05:44:00,35.1,15.3,30.10,NW,315,4.7,8.1,44,0.00,,,0.00,WUHU216HW,2013-11-27 12:44:00,
2013-11-27 05:49:00,35.3,15.4,30.10,NNW,338,6.3,8.1,44,0.00,,,0.00,WUHU216HW,2013-11-27 12:49:00,
2013-11-27 05:54:00,35.3,15.4,30.10,NW,315,5.4,7.6,44,0.00,,,0.00,WUHU216HW,2013-11-27 12:54:00,
2013-11-27 05:59:00,35.3,15.0,30.10,NW,315,8.1,8.1,43,0.00,,,0.00,WUHU216HW,2013-11-27 12:59:00,
2013-11-27 06:04:00,35.5,15.1,30.10,NW,315,4.3,8.1,43,0.00,,,0.00,WUHU216HW,2013-11-27 13:04:00,
2013-11-27 06:09:00,35.5,15.1,30.10,NW,315,4.7,6.7,43,0.00,,,0.00,WUHU216HW,2013-11-27 13:09:00,
2013-11-27 06:14:00,35.3,15.0,30.09,WNW,293,5.4,8.5,43,0.00,,,0.00,WUHU216HW,2013-11-27 13:14:00,
2013-11-27 06:19:00,35.3,15.0,30.09,NW,315,4.7,8.5,43,0.00,,,0.00,WUHU216HW,2013-11-27 13:19:00,
2013-11-27 06:24:00,35.3,15.0,30.09,NW,315,4.0,6.5,43,0.00,,,0.00,WUHU216HW,2013-11-27 13:24:00,
2013-11-27 06:29:00,35.5,15.1,30.09,NW,315,6.3,8.5,43,0.00,,,0.00,WUHU216HW,2013-11-27 13:29:00,
2013-11-27 06:34:00,35.6,14.8,30.09,NW,315,6.3,8.5,42,0.00,,,0.00,WUHU216HW,2013-11-27 13:34:00,
2013-11-27 06:39:00,35.8,14.9,30.09,NNW,338,7.8,8.9,42,0.00,,,0.00,WUHU216HW,2013-11-27 13:39:00,
2013-11-27 06:44:00,36.0,15.0,30.09,NNW,338,4.5,8.9,42,0.00,,,0.00,WUHU216HW,2013-11-27 13:44:00,
2013-11-27 06:49:00,36.0,15.0,30.09,NW,315,7.2,7.8,42,0.00,,,0.00,WUHU216HW,2013-11-27 13:49:00,
2013-11-27 06:54:00,36.0,15.0,30.09,WNW,293,7.2,7.8,42,0.00,,,0.00,WUHU216HW,2013-11-27 13:54:00,
2013-11-27 06:59:00,36.2,15.2,30.09,North,0,6.5,8.5,42,0.00,,,0.00,WUHU216HW,2013-11-27 13:59:00,
2013-11-27 07:05:00,36.4,15.4,30.08,NNW,338,6.5,9.2,42,0.00,,,0.00,WUHU216HW,2013-11-27 14:05:00,
2013-11-27 07:10:00,36.4,15.4,30.09,NNW,338,5.4,9.2,42,0.00,,,0.00,WUHU216HW,2013-11-27 14:10:00,
2013-11-27 07:15:00,36.4,14.9,30.09,NW,315,7.4,7.8,41,0.00,,,0.00,WUHU216HW,2013-11-27 14:15:00,
2013-11-27 07:20:00,36.5,15.0,30.09,NW,315,6.9,9.2,41,0.00,,,0.00,WUHU216HW,2013-11-27 14:20:00,
2013-11-27 07:25:00,36.7,15.2,30.09,NW,315,7.8,9.2,41,0.00,,,0.00,WUHU216HW,2013-11-27 14:25:00,
2013-11-27 07:30:00,36.9,15.3,30.09,NNW,338,7.2,9.2,41,0.00,,,0.00,WUHU216HW,2013-11-27 14:30:00,
2013-11-27 07:35:00,37.1,15.5,30.09,NW,315,8.9,10.1,41,0.00,,,0.00,WUHU216HW,2013-11-27 14:35:00,
2013-11-27 07:40:00,37.1,14.9,30.09,NW,315,6.3,10.1,40,0.00,,,0.00,WUHU216HW,2013-11-27 14:40:00,
2013-11-27 07:45:00,37.3,15.1,30.09,NW,315,8.9,8.9,40,0.00,,,0.00,WUHU216HW,2013-11-27 14:45:00,
2013-11-27 07:50:00,37.6,15.5,30.08,NNW,338,4.0,9.4,40,0.00,,,0.00,WUHU216HW,2013-11-27 14:50:00,
2013-11-27 07:55:00,37.8,15.7,30.08,NW,315,6.7,9.4,40,0.00,,,0.00,WUHU216HW,2013-11-27 14:55:00,
2013-11-27 08:00:00,38.2,15.3,30.08,NW,315,8.7,11.4,39,0.00,,,0.00,WUHU216HW,2013-11-27 15:00:00,
2013-11-27 08:05:00,38.5,15.7,30.08,North,0,9.8,11.4,39,0.00,,,0.00,WUHU216HW,2013-11-27 15:05:00,
2013-11-27 08:10:00,38.9,15.9,30.08,NNW,338,6.3,9.8,39,0.00,,,0.00,WUHU216HW,2013-11-27 15:10:00,
2013-11-27 08:15:00,39.1,15.5,30.08,NNW,338,4.9,8.1,38,0.00,,,0.00,WUHU216HW,2013-11-27 15:15:00,
2013-11-27 08:20:00,39.4,15.8,30.08,North,0,7.8,8.1,38,0.00,,,0.00,WUHU216HW,2013-11-27 15:20:00,
2013-11-27 08:25:00,40.0,16.3,30.08,NW,315,9.2,9.2,38,0.00,,,0.00,WUHU216HW,2013-11-27 15:25:00,
2013-11-27 08:30:00,40.3,15.9,30.08,North,0,10.5,10.5,37,0.00,,,0.00,WUHU216HW,2013-11-27 15:30:00,
2013-11-27 08:35:00,40.7,15.7,30.08,NW,315,11.4,11.4,36,0.00,,,0.00,WUHU216HW,2013-11-27 15:35:00,
2013-11-27 08:40:00,41.4,15.6,30.07,NW,315,9.8,11.4,35,0.00,,,0.00,WUHU216HW,2013-11-27 15:40:00,
2013-11-27 08:45:00,41.8,16.6,30.08,NW,315,4.7,11.6,36,0.00,,,0.00,WUHU216HW,2013-11-27 15:45:00,
2013-11-27 08:50:00,42.1,16.2,30.07,NW,315,10.1,11.6,35,0.00,,,0.00,WUHU216HW,2013-11-27 15:50:00,
2013-11-27 08:55:00,42.7,16.0,30.07,NW,315,6.7,10.5,34,0.00,,,0.00,WUHU216HW,2013-11-27 15:55:00,
2013-11-27 09:00:00,43.0,15.7,30.07,NW,315,11.4,12.3,33,0.00,,,0.00,WUHU216HW,2013-11-27 16:00:00,
2013-11-27 09:05:00,43.4,16.0,30.07,NW,315,8.9,12.3,33,0.00,,,0.00,WUHU216HW,2013-11-27 16:05:00,
2013-11-27 09:10:00,43.7,16.3,30.07,North,0,7.2,11.9,33,0.00,,,0.00,WUHU216HW,2013-11-27 16:10:00,
2013-11-27 09:15:00,44.3,16.8,30.07,NW,315,8.9,11.4,33,0.00,,,0.00,WUHU216HW,2013-11-27 16:15:00,
2013-11-27 09:20:00,44.8,17.9,30.07,North,0,7.4,11.4,34,0.00,,,0.00,WUHU216HW,2013-11-27 16:20:00,
2013-11-27 09:25:00,45.4,17.7,30.07,NNW,338,4.7,11.4,33,0.00,,,0.00,WUHU216HW,2013-11-27 16:25:00,
2013-11-27 09:30:00,45.7,18.1,30.07,West,270,8.5,9.2,33,0.00,,,0.00,WUHU216HW,2013-11-27 16:30:00,
2013-11-27 09:35:00,46.1,18.5,30.06,NNW,338,5.6,9.2,33,0.00,,,0.00,WUHU216HW,2013-11-27 16:35:00,
2013-11-27 09:40:00,46.8,18.4,30.06,NNW,338,10.3,10.3,32,0.00,,,0.00,WUHU216HW,2013-11-27 16:40:00,
2013-11-27 09:45:00,47.2,18.1,30.06,NW,315,6.9,10.5,31,0.00,,,0.00,WUHU216HW,2013-11-27 16:45:00,
2013-11-27 09:51:00,47.9,18.7,30.06,NNE,23,5.6,12.1,31,0.00,,,0.00,WUHU216HW,2013-11-27 16:51:00,
2013-11-27 09:56:00,48.2,19.0,30.06,NNW,338,8.1,12.1,31,0.00,,,0.00,WUHU216HW,2013-11-27 16:56:00,
2013-11-27 10:01:00,48.8,18.8,30.06,North,0,8.1,12.3,30,0.00,,,0.00,WUHU216HW,2013-11-27 17:01:00,
2013-11-27 10:06:00,49.3,19.3,30.06,NNE,23,4.9,12.3,30,0.00,,,0.00,WUHU216HW,2013-11-27 17:06:00,
2013-11-27 10:11:00,49.7,18.6,30.05,NW,315,7.6,11.4,29,0.00,,,0.00,WUHU216HW,2013-11-27 17:11:00,
2013-11-27 10:16:00,50.2,19.1,30.05,NW,315,6.7,10.5,29,0.00,,,0.00,WUHU216HW,2013-11-27 17:16:00,
2013-11-27 10:21:00,50.8,19.5,30.05,North,0,6.5,10.5,29,0.00,,,0.00,WUHU216HW,2013-11-27 17:21:00,
2013-11-27 10:26:00,51.1,18.9,30.05,NW,315,7.6,11.0,28,0.00,,,0.00,WUHU216HW,2013-11-27 17:26:00,
2013-11-27 10:31:00,51.5,20.2,30.05,NW,315,4.7,11.0,29,0.00,,,0.00,WUHU216HW,2013-11-27 17:31:00,
2013-11-27 10:36:00,52.0,19.7,30.05,North,0,4.3,11.0,28,0.00,,,0.00,WUHU216HW,2013-11-27 17:36:00,
2013-11-27 10:41:00,52.2,19.9,30.04,NNW,338,10.3,10.3,28,0.00,,,0.00,WUHU216HW,2013-11-27 17:41:00,
2013-11-27 10:46:00,52.9,20.5,30.04,North,0,5.4,10.3,28,0.00,,,0.00,WUHU216HW,2013-11-27 17:46:00,
2013-11-27 10:51:00,53.3,19.9,30.04,NNW,338,6.3,10.3,27,0.00,,,0.00,WUHU216HW,2013-11-27 17:51:00,
2013-11-27 10:56:00,53.6,20.2,30.04,North,0,6.7,7.6,27,0.00,,,0.00,WUHU216HW,2013-11-27 17:56:00,
2013-11-27 11:01:00,54.0,20.5,30.03,NW,315,6.5,9.6,27,0.00,,,0.00,WUHU216HW,2013-11-27 18:01:00,
2013-11-27 11:06:00,54.5,19.1,30.03,NW,315,6.5,10.5,25,0.00,,,0.00,WUHU216HW,2013-11-27 18:06:00,
2013-11-27 11:11:00,55.1,21.3,30.03,NW,315,6.9,10.5,27,0.00,,,0.00,WUHU216HW,2013-11-27 18:11:00,
2013-11-27 11:16:00,55.8,22.0,30.02,NNW,338,3.8,7.2,27,0.00,,,0.00,WUHU216HW,2013-11-27 18:16:00,
2013-11-27 11:21:00,56.2,20.4,30.02,NW,315,4.7,8.5,25,0.00,,,0.00,WUHU216HW,2013-11-27 18:21:00,
2013-11-27 11:27:00,56.3,20.5,30.02,NW,315,9.6,9.6,25,0.00,,,0.00,WUHU216HW,2013-11-27 18:27:00,
2013-11-27 11:32:00,56.5,20.7,30.02,NW,315,5.8,9.6,25,0.00,,,0.00,WUHU216HW,2013-11-27 18:32:00,
2013-11-27 11:37:00,57.1,21.2,30.02,WNW,293,3.4,7.6,25,0.00,,,0.00,WUHU216HW,2013-11-27 18:37:00,
2013-11-27 11:42:00,57.6,20.7,30.02,NW,315,4.0,6.3,24,0.00,,,0.00,WUHU216HW,2013-11-27 18:42:00,
2013-11-27 11:47:00,58.1,21.2,30.02,NW,315,5.1,6.7,24,0.00,,,0.00,WUHU216HW,2013-11-27 18:47:00,
2013-11-27 11:52:00,58.7,21.6,30.01,NNW,338,5.8,6.7,24,0.00,,,0.00,WUHU216HW,2013-11-27 18:52:00,
2013-11-27 11:56:00,58.7,21.6,30.01,NNW,338,3.1,8.7,24,0.00,,,0.00,WUHU216HW,2013-11-27 18:56:00,
2013-11-27 12:01:00,58.9,20.8,30.01,North,0,4.7,8.7,23,0.00,,,0.00,WUHU216HW,2013-11-27 19:01:00,
2013-11-27 12:06:00,58.9,21.8,30.01,WNW,293,3.4,5.6,24,0.00,,,0.00,WUHU216HW,2013-11-27 19:06:00,
2013-11-27 12:11:00,59.2,21.1,30.01,North,0,4.5,5.4,23,0.00,,,0.00,WUHU216HW,2013-11-27 19:11:00,
2013-11-27 12:16:00,59.6,21.4,30.00,NNE,23,3.4,5.4,23,0.00,,,0.00,WUHU216HW,2013-11-27 19:16:00,
2013-11-27 12:21:00,59.8,21.5,30.00,North,0,3.4,5.1,23,0.00,,,0.00,WUHU216HW,2013-11-27 19:21:00,
2013-11-27 12:26:00,59.9,21.7,30.00,North,0,2.5,5.1,23,0.00,,,0.00,WUHU216HW,2013-11-27 19:26:00,
2013-11-27 12:31:00,60.3,23.0,30.00,NNW,338,2.7,3.4,24,0.00,,,0.00,WUHU216HW,2013-11-27 19:31:00,
2013-11-27 12:36:00,60.7,22.3,30.00,North,0,3.6,4.0,23,0.00,,,0.00,WUHU216HW,2013-11-27 19:36:00,
2013-11-27 12:41:00,60.8,22.5,29.99,WSW,248,1.1,4.0,23,0.00,,,0.00,WUHU216HW,2013-11-27 19:41:00,
2013-11-27 12:46:00,60.8,22.5,29.99,North,0,2.0,2.5,23,0.00,,,0.00,WUHU216HW,2013-11-27 19:46:00,
2013-11-27 12:51:00,60.8,22.5,29.99,East,90,1.8,2.9,23,0.00,,,0.00,WUHU216HW,2013-11-27 19:51:00,
2013-11-27 12:56:00,60.8,21.5,30.00,South,180,3.4,3.4,22,0.00,,,0.00,WUHU216HW,2013-11-27 19:56:00,
2013-11-27 13:01:00,60.7,22.3,29.99,ESE,113,0.7,3.4,23,0.00,,,0.00,WUHU216HW,2013-11-27 20:01:00,
2013-11-27 13:06:00,60.7,20.4,29.99,South,180,3.4,3.4,21,0.00,,,0.00,WUHU216HW,2013-11-27 20:06:00,
2013-11-27 13:11:00,60.5,20.3,29.99,SSE,158,1.1,3.4,21,0.00,,,0.00,WUHU216HW,2013-11-27 20:11:00,
2013-11-27 13:16:00,60.5,21.3,29.99,ESE,113,1.1,2.5,22,0.00,,,0.00,WUHU216HW,2013-11-27 20:16:00,
2013-11-27 13:21:00,60.7,20.4,29.99,SE,135,3.4,4.0,21,0.00,,,0.00,WUHU216HW,2013-11-27 20:21:00,
2013-11-27 13:26:00,60.5,20.3,29.99,SE,135,0.9,4.7,21,0.00,,,0.00,WUHU216HW,2013-11-27 20:26:00,
2013-11-27 13:31:00,60.5,20.3,29.98,SE,135,2.0,4.7,21,0.00,,,0.00,WUHU216HW,2013-11-27 20:31:00,
2013-11-27 13:36:00,60.7,20.4,29.98,SE,135,2.0,3.8,21,0.00,,,0.00,WUHU216HW,2013-11-27 20:36:00,
2013-11-27 13:41:00,60.8,20.6,29.98,SW,225,1.6,3.8,21,0.00,,,0.00,WUHU216HW,2013-11-27 20:41:00,
2013-11-27 13:46:00,60.8,20.6,29.98,WSW,248,1.3,3.1,21,0.00,,,0.00,WUHU216HW,2013-11-27 20:46:00,
2013-11-27 13:52:00,60.8,21.5,29.98,SSW,203,1.1,2.5,22,0.00,,,0.00,WUHU216HW,2013-11-27 20:52:00,
2013-11-27 13:57:00,61.0,21.7,29.98,South,180,2.0,4.0,22,0.00,,,0.00,WUHU216HW,2013-11-27 20:57:00,
2013-11-27 14:02:00,61.0,19.8,29.98,South,180,3.8,6.3,20,0.00,,,0.00,WUHU216HW,2013-11-27 21:02:00,
2013-11-27 14:07:00,60.8,20.6,29.98,SSE,158,6.0,6.3,21,0.00,,,0.00,WUHU216HW,2013-11-27 21:07:00,
2013-11-27 14:12:00,60.8,20.6,29.98,SSW,203,6.5,6.5,21,0.00,,,0.00,WUHU216HW,2013-11-27 21:12:00,
2013-11-27 14:17:00,60.8,20.6,29.99,South,180,1.8,6.5,21,0.00,,,0.00,WUHU216HW,2013-11-27 21:17:00,
2013-11-27 14:22:00,60.7,17.9,29.99,SSE,158,6.7,6.7,19,0.00,,,0.00,WUHU216HW,2013-11-27 21:22:00,
2013-11-27 14:27:00,60.8,20.6,29.99,ESE,113,7.6,7.6,21,0.00,,,0.00,WUHU216HW,2013-11-27 21:27:00,
2013-11-27 14:32:00,61.2,20.9,29.99,SE,135,0.7,7.6,21,0.00,,,0.00,WUHU216HW,2013-11-27 21:32:00,
2013-11-27 14:37:00,61.0,20.7,29.99,SW,225,4.5,5.4,21,0.00,,,0.00,WUHU216HW,2013-11-27 21:37:00,
2013-11-27 14:42:00,61.0,20.7,29.99,SE,135,2.7,4.7,21,0.00,,,0.00,WUHU216HW,2013-11-27 21:42:00,
2013-11-27 14:47:00,61.0,20.7,29.99,ESE,113,2.9,3.4,21,0.00,,,0.00,WUHU216HW,2013-11-27 21:47:00,
2013-11-27 14:52:00,60.8,18.1,29.99,SSE,158,5.4,5.4,19,0.00,,,0.00,WUHU216HW,2013-11-27 21:52:00,
2013-11-27 14:57:00,60.8,20.6,29.99,ESE,113,5.8,7.6,21,0.00,,,0.00,WUHU216HW,2013-11-27 21:57:00,
2013-11-27 15:02:00,60.8,18.1,29.99,ESE,113,3.4,7.6,19,0.00,,,0.00,WUHU216HW,2013-11-27 22:02:00,
2013-11-27 15:07:00,60.8,18.1,29.99,SSE,158,4.9,5.8,19,0.00,,,0.00,WUHU216HW,2013-11-27 22:07:00,
2013-11-27 15:12:00,60.8,19.6,29.99,SSE,158,2.5,8.1,20,0.00,,,0.00,WUHU216HW,2013-11-27 22:12:00,
2013-11-27 15:17:00,60.7,17.9,29.99,SE,135,1.8,8.1,19,0.00,,,0.00,WUHU216HW,2013-11-27 22:17:00,
2013-11-27 15:22:00,60.7,17.9,29.99,South,180,5.4,6.5,19,0.00,,,0.00,WUHU216HW,2013-11-27 22:22:00,
2013-11-27 15:27:00,60.7,19.4,29.99,SE,135,5.4,6.3,20,0.00,,,0.00,WUHU216HW,2013-11-27 22:27:00,
2013-11-27 15:32:00,60.5,19.3,29.99,SSE,158,4.7,8.7,20,0.00,,,0.00,WUHU216HW,2013-11-27 22:32:00,
2013-11-27 15:37:00,60.1,19.9,29.99,SE,135,1.1,8.7,21,0.00,,,0.00,WUHU216HW,2013-11-27 22:37:00,
2013-11-27 15:42:00,60.1,19.9,29.99,SSE,158,3.4,5.1,21,0.00,,,0.00,WUHU216HW,2013-11-27 22:42:00,
2013-11-27 15:47:00,59.8,19.6,29.99,SE,135,3.8,4.5,21,0.00,,,0.00,WUHU216HW,2013-11-27 22:47:00,
2013-11-27 15:52:00,59.4,19.3,29.99,SSE,158,2.5,4.5,21,0.00,,,0.00,WUHU216HW,2013-11-27 22:52:00,
2013-11-27 15:57:00,59.2,19.2,30.00,SSE,158,3.4,5.1,21,0.00,,,0.00,WUHU216HW,2013-11-27 22:57:00,
2013-11-27 16:02:00,59.0,19.0,29.99,SSE,158,1.8,5.4,21,0.00,,,0.00,WUHU216HW,2013-11-27 23:02:00,
2013-11-27 16:07:00,58.7,18.7,30.00,SSE,158,2.5,5.4,21,0.00,,,0.00,WUHU216HW,2013-11-27 23:07:00,
2013-11-27 16:12:00,58.1,19.2,30.00,SSE,158,1.6,3.8,22,0.00,,,0.00,WUHU216HW,2013-11-27 23:12:00,
2013-11-27 16:17:00,57.8,18.9,30.00,SSW,203,2.9,3.4,22,0.00,,,0.00,WUHU216HW,2013-11-27 23:17:00,
2013-11-27 16:22:00,57.2,19.5,30.00,SSW,203,2.5,3.4,23,0.00,,,0.00,WUHU216HW,2013-11-27 23:22:00,
2013-11-27 16:27:00,56.9,19.1,30.00,SSW,203,2.0,2.7,23,0.00,,,0.00,WUHU216HW,2013-11-27 23:27:00,
2013-11-27 16:32:00,56.3,19.6,30.00,SSW,203,2.2,3.4,24,0.00,,,0.00,WUHU216HW,2013-11-27 23:32:00,
2013-11-27 16:37:00,55.8,19.2,30.00,SW,225,2.0,3.4,24,0.00,,,0.00,WUHU216HW,2013-11-27 23:37:00,
2013-11-27 16:42:00,55.3,18.7,30.00,SW,225,1.8,3.1,24,0.00,,,0.00,WUHU216HW,2013-11-27 23:42:00,
2013-11-27 16:47:00,54.5,19.1,30.00,WSW,248,2.0,2.5,25,0.00,,,0.00,WUHU216HW,2013-11-27 23:47:00,
2013-11-27 16:53:00,53.8,18.5,30.01,WSW,248,1.8,2.0,25,0.00,,,0.00,WUHU216HW,2013-11-27 23:53:00,
2013-11-27 16:58:00,53.3,18.0,30.01,WSW,248,0.9,2.0,25,0.00,,,0.00,WUHU216HW,2013-11-27 23:58:00,
2013-11-27 17:03:00,52.6,19.3,30.01,NW,315,0.9,1.8,27,0.00,,,0.00,WUHU216HW,2013-11-28 00:03:00,
2013-11-27 17:08:00,51.8,19.5,30.01,NNW,338,3.1,3.4,28,0.00,,,0.00,WUHU216HW,2013-11-28 00:08:00,
2013-11-27 17:13:00,50.9,18.7,30.01,NW,315,1.6,3.4,28,0.00,,,0.00,WUHU216HW,2013-11-28 00:13:00,
2013-11-27 17:18:00,50.2,19.1,30.01,NW,315,1.3,2.5,29,0.00,,,0.00,WUHU216HW,2013-11-28 00:18:00,
2013-11-27 17:23:00,49.7,18.6,30.01,NW,315,0.0,1.8,29,0.00,,,0.00,WUHU216HW,2013-11-28 00:23:00,
2013-11-27 17:28:00,49.1,19.1,30.01,NW,315,2.5,2.5,30,0.00,,,0.00,WUHU216HW,2013-11-28 00:28:00,
2013-11-27 17:33:00,48.4,19.2,30.01,NW,315,2.2,2.9,31,0.00,,,0.00,WUHU216HW,2013-11-28 00:33:00,
2013-11-27 17:38:00,47.5,19.1,30.02,NW,315,1.8,2.9,32,0.00,,,0.00,WUHU216HW,2013-11-28 00:38:00,
2013-11-27 17:43:00,46.6,19.5,30.02,NW,315,3.4,3.4,34,0.00,,,0.00,WUHU216HW,2013-11-28 00:43:00,
2013-11-27 17:48:00,46.3,18.5,30.02,NNE,23,2.9,4.7,33,0.00,,,0.00,WUHU216HW,2013-11-28 00:48:00,
2013-11-27 17:53:00,45.9,19.6,30.02,SSW,203,2.0,5.4,35,0.00,,,0.00,WUHU216HW,2013-11-28 00:53:00,
2013-11-27 17:58:00,45.5,18.6,30.02,NW,315,1.1,5.4,34,0.00,,,0.00,WUHU216HW,2013-11-28 00:58:00,
2013-11-27 18:03:00,45.2,17.7,30.02,NNW,338,0.9,2.0,33,0.00,,,0.00,WUHU216HW,2013-11-28 01:03:00,
2013-11-27 18:08:00,45.0,18.1,30.02,NNW,338,1.6,1.8,34,0.00,,,0.00,WUHU216HW,2013-11-28 01:08:00,
2013-11-27 18:13:00,45.0,18.8,30.02,NW,315,1.1,1.8,35,0.00,,,0.00,WUHU216HW,2013-11-28 01:13:00,
2013-11-27 18:18:00,45.0,18.8,30.02,NW,315,1.8,2.5,35,0.00,,,0.00,WUHU216HW,2013-11-28 01:18:00,
2013-11-27 18:23:00,45.0,18.1,30.02,NW,315,1.1,2.5,34,0.00,,,0.00,WUHU216HW,2013-11-28 01:23:00,
2013-11-27 18:28:00,44.8,17.9,30.02,NW,315,1.1,1.8,34,0.00,,,0.00,WUHU216HW,2013-11-28 01:28:00,
2013-11-27 18:33:00,45.0,18.8,30.03,NW,315,1.1,1.8,35,0.00,,,0.00,WUHU216HW,2013-11-28 01:33:00,
2013-11-27 18:38:00,44.8,18.6,30.02,WSW,248,2.2,2.2,35,0.00,,,0.00,WUHU216HW,2013-11-28 01:38:00,
2013-11-27 18:43:00,44.3,18.1,30.02,WSW,248,2.5,2.5,35,0.00,,,0.00,WUHU216HW,2013-11-28 01:43:00,
2013-11-27 18:48:00,44.1,18.0,30.02,WSW,248,0.0,2.5,35,0.00,,,0.00,WUHU216HW,2013-11-28 01:48:00,
2013-11-27 18:53:00,43.7,18.3,30.02,WSW,248,1.8,1.8,36,0.00,,,0.00,WUHU216HW,2013-11-28 01:53:00,
2013-11-27 18:58:00,43.6,18.2,30.03,SW,225,1.6,2.5,36,0.00,,,0.00,WUHU216HW,2013-11-28 01:58:00,
2013-11-27 19:03:00,43.4,18.0,30.03,SW,225,0.9,2.5,36,0.00,,,0.00,WUHU216HW,2013-11-28 02:03:00,
2013-11-27 19:08:00,42.8,17.5,30.03,SW,225,0.7,1.3,36,0.00,,,0.00,WUHU216HW,2013-11-28 02:08:00,
2013-11-27 19:13:00,42.1,17.6,30.03,WNW,293,2.5,2.5,37,0.00,,,0.00,WUHU216HW,2013-11-28 02:13:00,
2013-11-27 19:18:00,41.4,17.6,30.03,North,0,2.0,2.9,38,0.00,,,0.00,WUHU216HW,2013-11-28 02:18:00,
2013-11-27 19:23:00,40.7,17.6,30.03,West,270,2.0,2.9,39,0.00,,,0.00,WUHU216HW,2013-11-28 02:23:00,
2013-11-27 19:28:00,40.0,17.6,30.03,NNW,338,1.6,2.0,40,0.00,,,0.00,WUHU216HW,2013-11-28 02:28:00,
2013-11-27 19:33:00,39.6,18.3,30.03,NW,315,3.4,3.8,42,0.00,,,0.00,WUHU216HW,2013-11-28 02:33:00,
2013-11-27 19:39:00,39.2,18.0,30.03,NW,315,2.2,3.8,42,0.00,,,0.00,WUHU216HW,2013-11-28 02:39:00,
2013-11-27 19:44:00,39.1,17.8,30.03,NW,315,1.8,2.7,42,0.00,,,0.00,WUHU216HW,2013-11-28 02:44:00,
2013-11-27 19:49:00,38.9,17.6,30.03,WNW,293,2.5,2.7,42,0.00,,,0.00,WUHU216HW,2013-11-28 02:49:00,
2013-11-27 19:54:00,38.9,18.2,30.03,West,270,1.6,2.7,43,0.00,,,0.00,WUHU216HW,2013-11-28 02:54:00,
2013-11-27 19:59:00,39.1,17.8,30.03,West,270,0.9,2.7,42,0.00,,,0.00,WUHU216HW,2013-11-28 02:59:00,
2013-11-27 20:04:00,39.1,17.8,30.03,NW,315,1.8,1.8,42,0.00,,,0.00,WUHU216HW,2013-11-28 03:04:00,
2013-11-27 20:09:00,38.9,17.6,30.03,West,270,2.5,2.9,42,0.00,,,0.00,WUHU216HW,2013-11-28 03:09:00,
2013-11-27 20:14:00,38.7,17.5,30.03,West,270,1.3,2.9,42,0.00,,,0.00,WUHU216HW,2013-11-28 03:14:00,
2013-11-27 20:19:00,38.7,17.5,30.03,WNW,293,1.1,2.0,42,0.00,,,0.00,WUHU216HW,2013-11-28 03:19:00,
2013-11-27 20:24:00,38.5,17.3,30.04,NW,315,1.6,1.6,42,0.00,,,0.00,WUHU216HW,2013-11-28 03:24:00,
2013-11-27 20:29:00,38.0,17.4,30.04,WNW,293,2.5,2.5,43,0.00,,,0.00,WUHU216HW,2013-11-28 03:29:00,
2013-11-27 20:34:00,37.4,16.8,30.04,WSW,248,3.1,3.4,43,0.00,,,0.00,WUHU216HW,2013-11-28 03:34:00,
2013-11-27 20:39:00,37.4,17.4,30.04,NW,315,0.9,3.4,44,0.00,,,0.00,WUHU216HW,2013-11-28 03:39:00,
2013-11-27 20:44:00,37.3,17.7,30.04,NNW,338,2.9,3.6,45,0.00,,,0.00,WUHU216HW,2013-11-28 03:44:00,
2013-11-27 20:49:00,36.5,17.1,30.04,West,270,2.7,3.8,45,0.00,,,0.00,WUHU216HW,2013-11-28 03:49:00,
2013-11-27 20:54:00,36.4,16.9,30.04,West,270,2.9,3.8,45,0.00,,,0.00,WUHU216HW,2013-11-28 03:54:00,
2013-11-27 20:59:00,36.2,16.7,30.05,WNW,293,2.5,2.9,45,0.00,,,0.00,WUHU216HW,2013-11-28 03:59:00,
2013-11-27 21:04:00,36.2,16.7,30.05,NW,315,2.0,2.5,45,0.00,,,0.00,WUHU216HW,2013-11-28 04:04:00,
2013-11-27 21:09:00,36.4,17.5,30.04,NW,315,3.4,3.4,46,0.00,,,0.00,WUHU216HW,2013-11-28 04:09:00,
2013-11-27 21:14:00,36.2,17.3,30.05,WNW,293,3.1,3.4,46,0.00,,,0.00,WUHU216HW,2013-11-28 04:14:00,
2013-11-27 21:19:00,36.0,17.1,30.05,WNW,293,1.3,3.1,46,0.00,,,0.00,WUHU216HW,2013-11-28 04:19:00,
2013-11-27 21:24:00,36.0,17.1,30.05,West,270,2.2,2.2,46,0.00,,,0.00,WUHU216HW,2013-11-28 04:24:00,
2013-11-27 21:29:00,36.0,17.1,30.05,NW,315,0.4,2.5,46,0.00,,,0.00,WUHU216HW,2013-11-28 04:29:00,
2013-11-27 21:34:00,36.2,17.3,30.05,NW,315,2.2,2.5,46,0.00,,,0.00,WUHU216HW,2013-11-28 04:34:00,
2013-11-27 21:39:00,35.8,17.0,30.05,WNW,293,2.5,2.5,46,0.00,,,0.00,WUHU216HW,2013-11-28 04:39:00,
2013-11-27 21:44:00,35.6,16.8,30.05,West,270,2.5,3.8,46,0.00,,,0.00,WUHU216HW,2013-11-28 04:44:00,
2013-11-27 21:49:00,35.5,16.7,30.05,NW,315,3.4,3.8,46,0.00,,,0.00,WUHU216HW,2013-11-28 04:49:00,
2013-11-27 21:54:00,35.6,17.4,30.05,NW,315,1.8,3.6,47,0.00,,,0.00,WUHU216HW,2013-11-28 04:54:00,
2013-11-27 21:59:00,36.2,17.3,30.05,West,270,1.8,3.6,46,0.00,,,0.00,WUHU216HW,2013-11-28 04:59:00,
2013-11-27 22:01:00,36.2,17.3,30.05,West,270,2.9,3.1,46,0.00,,,0.00,WUHU216HW,2013-11-28 05:01:00,
2013-11-27 22:02:00,36.2,17.3,30.05,West,270,1.8,3.1,46,0.00,,,0.00,WUHU216HW,2013-11-28 05:02:00,
2013-11-27 22:03:00,36.2,17.3,30.05,WNW,293,2.0,2.9,46,0.00,,,0.00,WUHU216HW,2013-11-28 05:03:00,
2013-11-27 22:06:00,36.4,17.5,30.05,NNW,338,1.8,2.9,46,0.00,,,0.00,WUHU216HW,2013-11-28 05:06:00,
2013-11-27 22:11:00,36.2,17.3,30.05,NNW,338,2.2,2.5,46,0.00,,,0.00,WUHU216HW,2013-11-28 05:11:00,
2013-11-27 22:16:00,35.6,16.8,30.06,WNW,293,2.5,3.4,46,0.00,,,0.00,WUHU216HW,2013-11-28 05:16:00,
2013-11-27 22:21:00,35.3,17.0,30.06,WNW,293,2.5,4.0,47,0.00,,,0.00,WUHU216HW,2013-11-28 05:21:00,
2013-11-27 22:27:00,35.3,17.0,30.06,West,270,2.7,4.0,47,0.00,,,0.00,WUHU216HW,2013-11-28 05:27:00,
2013-11-27 22:32:00,35.6,17.8,30.06,West,270,3.6,4.0,48,0.00,,,0.00,WUHU216HW,2013-11-28 05:32:00,
2013-11-27 22:37:00,35.6,17.4,30.06,WNW,293,2.5,4.0,47,0.00,,,0.00,WUHU216HW,2013-11-28 05:37:00,
2013-11-27 22:42:00,35.8,17.5,30.06,West,270,1.1,3.4,47,0.00,,,0.00,WUHU216HW,2013-11-28 05:42:00,
2013-11-27 22:47:00,36.0,17.6,30.06,West,270,2.0,2.0,47,0.00,,,0.00,WUHU216HW,2013-11-28 05:47:00,
2013-11-27 22:52:00,36.0,17.1,30.06,NW,315,1.8,2.0,46,0.00,,,0.00,WUHU216HW,2013-11-28 05:52:00,
2013-11-27 22:57:00,36.2,17.3,30.07,WNW,293,1.1,1.8,46,0.00,,,0.00,WUHU216HW,2013-11-28 05:57:00,
2013-11-27 23:02:00,36.0,17.6,30.07,NW,315,1.6,1.8,47,0.00,,,0.00,WUHU216HW,2013-11-28 06:02:00,
2013-11-27 23:07:00,35.5,17.2,30.07,NW,315,1.3,1.8,47,0.00,,,0.00,WUHU216HW,2013-11-28 06:07:00,
2013-11-27 23:12:00,35.1,16.8,30.07,NW,315,0.9,1.8,47,0.00,,,0.00,WUHU216HW,2013-11-28 06:12:00,
2013-11-27 23:17:00,34.9,16.7,30.07,NW,315,0.9,1.8,47,0.00,,,0.00,WUHU216HW,2013-11-28 06:17:00,
2013-11-27 23:22:00,34.7,16.5,30.07,NW,315,0.0,1.3,47,0.00,,,0.00,WUHU216HW,2013-11-28 06:22:00,
2013-11-27 23:27:00,34.6,16.8,30.07,NW,315,0.0,1.3,48,0.00,,,0.00,WUHU216HW,2013-11-28 06:27:00,
2013-11-27 23:32:00,34.2,16.5,30.07,NW,315,0.0,0.0,48,0.00,,,0.00,WUHU216HW,2013-11-28 06:32:00,
2013-11-27 23:37:00,34.2,16.5,30.08,NW,315,0.0,0.0,48,0.00,,,0.00,WUHU216HW,2013-11-28 06:37:00,
2013-11-27 23:42:00,33.8,16.6,30.08,NW,315,0.0,0.0,49,0.00,,,0.00,WUHU216HW,2013-11-28 06:42:00,
2013-11-27 23:47:00,33.5,16.3,30.08,NW,315,0.0,1.1,49,0.00,,,0.00,WUHU216HW,2013-11-28 06:47:00,
2013-11-27 23:52:00,33.5,16.3,30.08,NW,315,0.0,1.1,49,0.00,,,0.00,WUHU216HW,2013-11-28 06:52:00,
2013-11-27 23:57:00,33.3,16.7,30.08,NW,315,0.0,0.0,50,0.00,,,0.00,WUHU216HW,2013-11-28 06:57:00,